Starlink 30809

operational
NORAD ID: 58183 Int'l Des: 2023-167 Owner: SPXS Country: US Constellation: starlink
LEOCIRCULAR

Starlink 30809について

説明を読み込み中...

リアルタイム位置

3D地球を読み込み中...

次回通過

高度履歴

Altitude vs Time

uPlot chart will show altitude changes over time

軌道要素

1 58183U 23167J 25348.14786913 .00000687 00000-0 65914-4 0 9995
2 58183 43.0051 251.0794 0001403 267.0663 93.0019 15.02529435118082
Epoch: Dec 14, 2025 • Age: 43 hours

現在のステータス

高度 570.8 km
速度 7.58 km/s
衛星直下点 -41.48°S, 111.69°E
打ち上げ日 Oct 30, 2023
運用期間 2.1 years
タイプ internet

技術仕様

分類 Payload
質量 730.00 kg
乾燥質量 700.00 kg
総質量 730.00 kg
長さ 0.30 m
直径 4.10 m
スパン 29.00 m
形状 Box + pan
製造者 SPXS
バスタイプ Starlink V2M
フェーズステータス In Orbit
所有者/国 SPXS/US

大規模コンステレーション

Loading constellations...